Location: Newark
(11.2914°S, 14.4718°E)
Time: 12:43:33
(UTC+00:00)

Vanguard 2 Rocket - Visible Passes

Search period start: 20 September 2019 00:00
Search period end: 30 September 2019 00:00
Orbit: 554 x 3327 km, 32.9° (Epoch: 20 September)

Date Brightness Start Highest point End Pass type
(mag) Time Alt. Az. Time Alt. Az. Time Alt. Az.
20 Sep 8.5 02:08:47 61° NNE 02:09:53 64° NE 02:25:57 10° ESE visible
20 Sep 9.4 04:14:38 11° W 04:26:52 58° SSW 04:46:11 10° SE visible
21 Sep 9.4 01:12:57 35° ENE 01:12:57 35° ENE 01:22:25 10° ESE visible
21 Sep 8.8 03:18:47 35° WNW 03:25:00 71° SSW 03:43:20 10° SE visible
22 Sep 10.4 00:17:03 12° E 00:17:03 12° E 00:18:18 10° E visible
22 Sep 8.2 02:22:53 79° NW 02:23:53 90° NE 02:40:23 10° ESE visible
22 Sep 9.7 04:29:34 10° W 04:42:01 46° SSW 05:00:30 10° SE visible
23 Sep 9.0 01:26:55 47° E 01:26:55 47° E 01:37:23 10° ESE visible
23 Sep 9.0 03:32:45 27° W 03:39:49 53° SSW 03:57:27 10° SE visible
24 Sep 10.1 00:30:55 18° E 00:30:55 18° E 00:34:14 10° ESE visible
24 Sep 8.3 02:36:44 60° WSW 02:38:20 65° SSW 02:54:32 10° SE visible
25 Sep 8.7 01:40:40 56° SE 01:40:40 56° SE 01:51:47 10° ESE visible
25 Sep 9.3 03:46:29 18° WSW 03:55:01 41° SSW 04:11:45 10° SE visible
26 Sep 9.8 00:44:34 24° ESE 00:44:34 24° ESE 00:49:10 10° ESE visible
26 Sep 8.6 02:50:22 41° SW 02:53:14 48° SSW 03:08:38 10° SE visible
27 Sep 8.6 01:54:14 52° SSE 01:54:14 52° SSE 02:05:53 10° SE visible
27 Sep 9.7 04:00:02 10° WSW 04:10:33 34° S 04:26:28 10° SE visible
28 Sep 9.6 00:58:03 28° SE 00:58:03 28° SE 01:03:31 10° SE visible
28 Sep 9.1 03:03:51 27° SW 03:08:28 37° SSW 03:22:54 10° SE visible
29 Sep 8.8 02:07:38 41° S 02:07:38 41° S 02:19:56 10° SE visible
29 Sep 9.8 04:15:33 10° WSW 04:26:15 31° S 04:41:46 10° ESE visible
